STARLINK-1102 (44920 NORAD) Tracking and Keplerian Element Data

This shows tracking and keplerian element data for the satellite.

Feedback or suggestion? Click here.




ElementValue
Catalog44920
NameSTARLINK-1102
Epoch Orbit710
Epoch Day52.91667824
Epoch Year2020
RAAN177.6964
Inclination53.0002
Eccentricity0.000172
Argument of Perigee65.6372
Mean Anonmoly202.5322
Mean Motion15.05609074
Decay Rate0.00025117
L11 44920U 20001G 20052.91667824 .00025117 00000-0 17355-2 0 9993
L22 44920 53.0002 177.6964 0001720 65.6372 202.5322 15.05609074 7101

Live tracking and technical data element details for STARLINK-1102 (NORAD 44920). STARLINK-1102 can be tracked NOW for your location showing map with azimuth and elevation plus other details from your city location.

Track the satellite on the map from your city or location and see movement details for azimuth, elevation, latitude, longitude, range, height, and movement on the map or in text.







IsCatalogInMostPopularTable: catalog: 44920, numindb: 17
Update: records affected: 1



GetName: 44920 STARLINK-1102

Hit Count: updated at: Wed, 26 Feb 2020 16:07:38 GMT